This demonstration page uses our WeatherBlox Daily Observations layout. Learn more.

Left ArrowRight Arrow

Hourly Observations for September 23, 2022

Temp ( °F °C ) Dew Point ( °F °C ) Humidity (%) Winds ( mph kmh ) Pressure ( in mb ) Visibility ( mi km ) Precip ( " mm )
12:53 am 00:53 Cloudy 81 27.2 71 21.7 72 72 S 6 9 29.93 1014 10 16 0.00 0.00
1:53 am 01:53 Cloudy 80 26.7 71 21.7 74 74 SE 7 11 29.92 1013 10 16 0.00 0.00
2:03 am 02:03 Cloudy 80 26.7 71 21.7 74 74 S 6 9 29.92 1013 10 16 0.00 0.00
2:34 am 02:34 Cloudy with Rain 78 25.6 73 22.8 85 85 SW 5 7 29.91 1013 2 3 0.07 1.78
2:37 am 02:37 Cloudy with Light Rain 78 25.6 73 22.8 85 85 Calm 29.91 1013 3 5 0.07 1.78
2:53 am 02:53 Cloudy 79 26.1 74 23.3 85 85 Calm 29.91 1013 10 16 0.07 1.78
3:53 am 03:53 Cloudy 79 26.1 74 23.3 85 85 ESE 5 7 29.89 1012 10 16 0.00 0.00
4:53 am 04:53 Cloudy 78 25.6 71 21.7 79 79 SE 6 9 29.90 1012 10 16 0.00 0.00
5:53 am 05:53 Clear 77 25 70 21.1 79 79 SE 7 11 29.90 1013 10 16 0.00 0.00
6:53 am 06:53 Sunny 77 25 70 21.1 79 79 ESE 6 9 29.91 1013 10 16 0.00 0.00
7:53 am 07:53 Sunny 80 26.7 72 22.2 76 76 SE 9 15 29.93 1014 10 16 0.00 0.00
8:53 am 08:53 Sunny 83 28.3 71 21.7 67 67 S 12 19 29.94 1014 10 16 0.00 0.00
9:53 am 09:53 Mostly Sunny 83 28.3 71 21.7 67 67 S 12 19 29.94 1014 10 16 0.00 0.00
10:53 am 10:53 Mostly Sunny 85 29.4 73 22.8 68 68 SSW 13 20 29.93 1014 10 16 0.00 0.00
11:53 am 11:53 Mostly Cloudy 85 29.4 73 22.8 68 68 SSW 12 19 29.96 1015 10 16 0.00 0.00
12:53 pm 12:53 Cloudy 85 29.4 73 22.8 68 68 WSW 9 15 29.95 1014 10 16 0.00 0.00
1:53 pm 13:53 Cloudy 84 28.9 73 22.8 70 70 SW 8 13 29.90 1012 10 16 0.00 0.00
2:53 pm 14:53 Cloudy 84 28.9 72 22.2 67 67 W 8 13 29.88 1012 10 16 0.00 0.00
3:53 pm 15:53 Mostly Cloudy 84 28.9 73 22.8 70 70 W 8 13 29.88 1012 10 16 0.00 0.00
4:53 pm 16:53 Sunny 83 28.3 73 22.8 72 72 WSW 7 11 29.88 1012 10 16 0.00 0.00
5:53 pm 17:53 Partly Cloudy 82 27.8 73 22.8 74 74 SSW 6 9 29.89 1012 10 16 0.00 0.00
6:53 pm 18:53 Mostly Clear 82 27.8 73 22.8 74 74 S 7 11 29.91 1013 10 16 0.00 0.00
7:42 pm 19:42 Mostly Cloudy 82 27.8 73 22.8 74 74 S 8 13 29.93 1013 10 16 0.00 0.00
7:53 pm 19:53 Partly Cloudy 82 27.8 73 22.8 74 74 S 8 13 29.93 1014 10 16 0.00 0.00
8:53 pm 20:53 Clear 81 27.2 73 22.8 77 77 S 9 15 29.95 1014 10 16 0.00 0.00
9:53 pm 21:53 Clear 81 27.2 73 22.8 77 77 SSE 9 15 29.96 1015 10 16 0.00 0.00
10:53 pm 22:53 Mostly Cloudy 80 26.7 72 22.2 76 76 SE 8 13 29.97 1015 10 16 0.00 0.00
11:53 pm 23:53 Mostly Clear 80 26.7 72 22.2 76 76 SE 9 15 29.96 1015 10 16 0.00 0.00

Powered by AerisWeather